Regional Weather Roundup
Issued by NWS

Home | Current Version | Previous Version | Text Only | Print | Product List | Glossary Off
Versions: 1 2 3 4 5 6 7 8 9 10 11 12 13 14 15 16 17 18 19 20 21 22 23 24 25 26 27 28 29 30 31 32 33 34 35 36 37 38 39 40 41 42 43 44 45 46 47 48 49 50

000
ASUS45 KSLC 260510
RWRUT

UTAH REGIONAL WEATHER ROUNDUP
NATIONAL WEATHER SERVICE SALT LAKE CITY UT
1100 PM MDT WED MAY 25 2016

UTZ001>011-023>025-260600-

NORTHERN UTAH

CITY           SKY/WX    TMP DP  RH WIND       PRES   REMARKS
BRIGHAM CITY     N/A     53  42  66 W3        30.05R
HILL AFB       CLEAR     53  42  66 N3        30.05R
LOGAN          CLEAR     47  42  83 CALM      30.06R
OGDEN          CLEAR     53  44  71 N6        30.04R
PROVO AIRPORT  CLOUDY    57  43  58 N8        30.03S
SALT LAKE CITY MOCLDY    59  44  57 N6        30.04R
VERNAL         CLOUDY    53  34  48 NE9       30.02R
WENDOVER       MOCLDY    55  37  50 NW15      30.05R
HEBER CITY     MOCLDY    46  34  61 N3        30.07R
WEST JORDAN    MOCLDY    54  41  62 W6        30.05R

$$

UTZ012>022-026-027-260600-

SOUTHERN/CENTRAL UTAH

CITY           SKY/WX    TMP DP  RH WIND       PRES   REMARKS
BLANDING       CLEAR     53  22  31 N5        30.06R
BRYCE CANYON   CLOUDY    45  20  36 W10       30.08R
CEDAR CITY     CLOUDY    55  21  26 NE3       30.02R
DELTA          CLOUDY    55  36  47 N15       30.02F
HANKSVILLE     CLOUDY    63  12  14 CALM      29.92R
MILFORD        MOCLDY    53  33  46 NW12      30.02R
MOAB/CYNLANDS  PTCLDY    56  13  18 SW3       29.89S
PRICE          MOCLDY    53  26  35 N10       30.00S
ST GEORGE      MOCLDY    72  21  15 SW5       29.93R
KANAB          MOCLDY    63  23  22 W9        30.01R

$$

REGIONAL REPORTS     COLORADO/ARIZONA

CITY           SKY/WX    TMP DP  RH WIND       PRES   REMARKS
CRAIG, CO      CLEAR     49  32  52 SW5       30.08R
GRAND JUNCTION CLEAR     56  18  22 SE5       29.94R
RIFLE          CLEAR     53  24  32 VRB6      30.00R
MONTROSE       PTCLDY    59  21  23 SE6       30.00F
CORTEZ         CLOUDY    50  26  39 E7        30.01R
PAGE, AZ       MOCLDY    69  22  16 W5        29.92R
GRAND CANYON   PTCLDY    42  19  39 CALM      30.07S
KINGMAN        CLOUDY    61  32  33 MISG      29.96S
FLAGSTAFF      PTCLDY    40  20  44 CALM      30.08S

$$

REGIONAL REPORTS    NEVADA/IDAHO/WYOMING

CITY           SKY/WX    TMP DP  RH WIND       PRES   REMARKS
LAS VEGAS, NV  PTCLDY    70  35  27 NW9       29.88R
ELY            CLOUDY    43  38  82 N12       30.15R
ELKO           MOCLDY    47  43  86 CALM      30.10R
POCATELLO, ID  CLOUDY    47  42  83 S7        30.05R
BURLEY         CLOUDY    53  42  66 SW10      30.03R
EVANSTON, WY   CLOUDY    43  35  73 SE5       30.12R
ROCK SPRINGS   CLOUDY    43  34  70 SW15      30.10S
KEMMERER         N/A     39  34  81 S3        30.12S

$$



USA.gov is the U.S. government's official web portal to all federal, state and local government web resources and services.